23-09-2023, 00:00:00,    268,    0.0,    7.1,   0.00,   0.00, 1007.2,    0.3, -999.0
23-09-2023, 00:00:10,    267,    0.0,    7.0,   0.00,   0.00, 1007.2,    0.5, -999.0
23-09-2023, 00:00:20,    268,    0.0,    7.0,   0.00,   0.00, 1007.2,    0.4, -999.0
23-09-2023, 00:00:30,    267,    0.0,    7.0,   0.00,   0.00, 1007.2,    0.4, -999.0
23-09-2023, 00:00:40,    268,    0.0,    7.0,   0.00,   0.00, 1007.2,    0.5, -999.0
23-09-2023, 00:00:50,    267,    0.0,    7.0,   0.00,   0.00, 1007.3,    0.5, -999.0
23-09-2023, 00:01:00,    267,    0.0,    7.0,   0.00,   0.00, 1007.2,    0.5, -999.0
23-09-2023, 00:01:10,    267,    0.0,    7.0,   0.00,   0.00, 1007.3,    0.5, -999.0
23-09-2023, 00:01:20,    267,    0.0,    7.0,   0.00,   0.00, 1007.2,    0.7, -999.0
23-09-2023, 00:01:30,    267,    0.0,    7.0,   0.00,   0.00, 1007.2,    0.4, -999.0
23-09-2023, 00:01:39,    267,    0.0,    6.9,   0.00,   0.00, 1007.2,    0.4, -999.0
23-09-2023, 00:01:50,    267,    0.0,    6.9,   0.00,   0.00, 1007.2,    0.4, -999.0
23-09-2023, 00:02:00,    267,    0.0,    7.0,   0.00,   0.00, 1007.2,    0.3, -999.0
23-09-2023, 00:02:10,    267,    0.0,    7.0,   0.00,   0.00, 1007.2,    0.6, -999.0
23-09-2023, 00:02:19,    267,    0.0,    7.0,   0.00,   0.00, 1007.2,    0.5, -999.0
23-09-2023, 00:02:30,    267,    0.0,    7.0,   0.00,   0.00, 1007.2,    0.3, -999.0
23-09-2023, 00:02:40,    267,    0.0,    7.0,   0.00,   0.00, 1007.2,    0.4, -999.0
23-09-2023, 00:02:49,    267,    0.0,    6.9,   0.00,   0.00, 1007.2,    0.3, -999.0
23-09-2023, 00:02:59,    267,    0.0,    7.0,   0.00,   0.00, 1007.2,    0.3, -999.0
23-09-2023, 00:03:10,    267,    0.0,    7.0,   0.00,   0.00, 1007.2,    0.6, -999.0
23-09-2023, 00:03:20,    267,    0.0,    7.0,   0.00,   0.00, 1007.2,    0.9, -999.0
23-09-2023, 00:03:29,    266,    0.0,    7.0,   0.00,   0.00, 1007.2,    0.8, -999.0
23-09-2023, 00:03:39,    267,    0.0,    7.0,   0.00,   0.00, 1007.2,    0.7, -999.0
23-09-2023, 00:03:50,    267,    0.0,    7.0,   0.00,   0.00, 1007.2,    0.5, -999.0
23-09-2023, 00:03:59,    266,    0.0,    7.0,   0.00,   0.00, 1007.2,    0.4, -999.0
23-09-2023, 00:04:09,    266,    0.0,    7.0,   0.00,   0.00, 1007.2,    0.3, -999.0
23-09-2023, 00:04:20,    266,    0.0,    7.0,   0.00,   0.00, 1007.2,    0.3, -999.0
23-09-2023, 00:04:29,    266,    0.0,    7.0,   0.00,   0.00, 1007.2,    0.6, -999.0
23-09-2023, 00:04:39,    266,    0.0,    7.0,   0.00,   0.00, 1007.2,    0.3, -999.0
23-09-2023, 00:04:49,    266,    0.0,    7.0,   0.00,   0.00, 1007.2,    0.4, -999.0
23-09-2023, 00:04:59,    266,    0.5,    7.0,   0.00,   0.00, 1007.4,    0.5, -999.0
23-09-2023, 00:05:09,    266,    0.0,    7.0,   0.00,   0.00, 1007.2,    0.6, -999.0
23-09-2023, 00:05:19,    266,    0.0,    7.0,   0.00,   0.00, 1007.2,    0.3, -999.0
23-09-2023, 00:05:29,    266,    0.0,    7.0,   0.00,   0.00, 1007.2,    0.5, -999.0
23-09-2023, 00:05:39,    266,    0.0,    7.0,   0.00,   0.00, 1007.3,    0.4, -999.0
23-09-2023, 00:05:49,    266,    0.0,    7.0,   0.00,   0.00, 1007.3,    0.4, -999.0
23-09-2023, 00:05:59,    266,    0.0,    7.0,   0.00,   0.00, 1007.2,    0.5, -999.0
23-09-2023, 00:06:09,    266,    0.0,    6.9,   0.00,   0.00, 1007.2,    0.4, -999.0
23-09-2023, 00:06:19,    266,    0.0,    7.1,   0.00,   0.00, 1007.2,    0.4, -999.0
23-09-2023, 00:06:29,    259,    1.3,    7.0,   0.00,   0.00, 1007.4,    0.6, -999.0
23-09-2023, 00:06:39,    258,    0.6,    7.0,   0.00,   0.00, 1007.4,    0.4, -999.0
23-09-2023, 00:06:49,    258,    0.0,    7.0,   0.00,   0.00, 1007.3,    0.4, -999.0
23-09-2023, 00:06:59,    257,    0.0,    7.0,   0.00,   0.00, 1007.3,    0.3, -999.0
23-09-2023, 00:07:09,    257,    0.0,    7.0,   0.00,   0.00, 1007.3,    0.6, -999.0
23-09-2023, 00:07:19,    257,    0.0,    6.9,   0.00,   0.00, 1007.2,    0.4, -999.0
23-09-2023, 00:07:29,    257,    0.0,    7.0,   0.00,   0.00, 1007.3,    0.3, -999.0
23-09-2023, 00:07:39,    257,    0.0,    7.0,   0.00,   0.00, 1007.3,    0.4, -999.0
23-09-2023, 00:07:49,    258,    0.4,    7.1,   0.00,   0.00, 1007.4,    0.5, -999.0
23-09-2023, 00:07:59,    257,    0.0,    7.0,   0.00,   0.00, 1007.3,    0.5, -999.0
23-09-2023, 00:08:09,    257,    0.0,    7.0,   0.00,   0.00, 1007.3,    0.3, -999.0
23-09-2023, 00:08:19,    257,    0.0,    7.0,   0.00,   0.00, 1007.3,    0.3, -999.0
23-09-2023, 00:08:29,    257,    0.0,    6.9,   0.00,   0.00, 1007.3,    0.5, -999.0
23-09-2023, 00:08:39,    257,    0.0,    7.0,   0.00,   0.00, 1007.3,    0.6, -999.0
23-09-2023, 00:08:49,    257,    0.0,    7.0,   0.00,   0.00, 1007.3,    0.3, -999.0
23-09-2023, 00:08:59,    257,    0.0,    7.0,   0.00,   0.00, 1007.3,    0.5, -999.0
23-09-2023, 00:09:09,    257,    0.0,    7.0,   0.00,   0.00, 1007.3,    0.4, -999.0
23-09-2023, 00:09:19,    258,    0.3,    7.0,   0.00,   0.00, 1007.3,    0.5, -999.0
23-09-2023, 00:09:28,    258,    0.4,    7.0,   0.00,   0.00, 1007.4,    0.3, -999.0
23-09-2023, 00:09:39,    257,    0.1,    7.0,   0.00,   0.00, 1007.4,    0.4, -999.0
23-09-2023, 00:09:49,    247,    1.1,    7.0,   0.00,   0.00, 1007.4,    0.4, -999.0
23-09-2023, 00:09:58,    252,    1.3,    7.0,   0.00,   0.00, 1007.4,    0.6, -999.0
23-09-2023, 00:10:09,    251,    0.3,    7.0,   0.00,   0.00, 1007.4,    0.6, -999.0
23-09-2023, 00:10:19,    251,    0.0,    7.0,   0.00,   0.00, 1007.3,    0.5, -999.0
23-09-2023, 00:10:28,    251,    0.0,    6.9,   0.00,   0.00, 1007.3,    0.3, -999.0
23-09-2023, 00:10:38,    252,    0.0,    6.9,   0.00,   0.00, 1007.3,    0.4, -999.0
23-09-2023, 00:10:49,    251,    0.0,    6.9,   0.00,   0.00, 1007.3,    0.3, -999.0
23-09-2023, 00:10:59,    252,    0.0,    6.9,   0.00,   0.00, 1007.3,    0.5, -999.0
23-09-2023, 00:11:08,    259,    0.5,    7.0,   0.00,   0.00, 1007.4,    0.4, -999.0
23-09-2023, 00:11:18,    259,    1.1,    7.0,   0.00,   0.00, 1007.5,    0.3, -999.0
23-09-2023, 00:11:29,    259,    0.2,    7.0,   0.00,   0.00, 1007.4,    0.5, -999.0
23-09-2023, 00:11:38,    259,    0.0,    6.9,   0.00,   0.00, 1007.3,    0.4, -999.0
23-09-2023, 00:11:48,    259,    0.0,    6.9,   0.00,   0.00, 1007.3,    0.5, -999.0
23-09-2023, 00:11:58,    259,    0.0,    6.9,   0.00,   0.00, 1007.3,    0.4, -999.0
23-09-2023, 00:12:08,    259,    0.0,    6.9,   0.00,   0.00, 1007.3,    0.5, -999.0
23-09-2023, 00:12:18,    259,    0.0,    6.9,   0.00,   0.00, 1007.3,    0.4, -999.0
23-09-2023, 00:12:28,    259,    0.0,    6.9,   0.00,   0.00, 1007.3,    0.4, -999.0
23-09-2023, 00:12:38,    287,    0.0,    6.9,   0.00,   0.00, 1007.4,    0.6, -999.0
23-09-2023, 00:12:48,    269,    1.4,    7.0,   0.00,   0.00, 1007.4,    0.3, -999.0
23-09-2023, 00:12:58,    279,    0.5,    7.0,   0.00,   0.00, 1007.4,    0.5, -999.0
23-09-2023, 00:13:08,    279,    0.0,    6.9,   0.00,   0.00, 1007.3,    0.5, -999.0
23-09-2023, 00:13:18,    279,    0.0,    7.0,   0.00,   0.00, 1007.4,    0.5, -999.0
23-09-2023, 00:13:28,    279,    0.0,    6.9,   0.00,   0.00, 1007.4,    0.3, -999.0
23-09-2023, 00:13:38,    279,    0.0,    7.0,   0.00,   0.00, 1007.3,    0.4, -999.0
23-09-2023, 00:13:48,    260,    0.0,    7.0,   0.00,   0.00, 1007.4,    0.4, -999.0
23-09-2023, 00:13:58,    259,    0.0,    6.9,   0.00,   0.00, 1007.4,    0.6, -999.0
23-09-2023, 00:14:08,    259,    0.0,    6.9,   0.00,   0.00, 1007.4,    0.5, -999.0
23-09-2023, 00:14:18,    260,    0.0,    6.9,   0.00,   0.00, 1007.4,    0.6, -999.0
23-09-2023, 00:14:28,    262,    0.2,    7.0,   0.00,   0.00, 1007.4,    0.5, -999.0
23-09-2023, 00:14:38,    262,    0.1,    7.0,   0.00,   0.00, 1007.4,    0.4, -999.0
23-09-2023, 00:14:48,    263,    0.3,    7.0,   0.00,   0.00, 1007.4,    0.6, -999.0
23-09-2023, 00:14:58,    263,    0.0,    6.9,   0.00,   0.00, 1007.4,    0.5, -999.0
23-09-2023, 00:15:08,    263,    0.0,    7.0,   0.00,   0.00, 1007.4,    0.7, -999.0
23-09-2023, 00:15:18,    263,    0.0,    6.9,   0.00,   0.00, 1007.4,    0.3, -999.0
23-09-2023, 00:15:28,    263,    0.0,    6.9,   0.00,   0.00, 1007.4,    0.4, -999.0
23-09-2023, 00:15:38,    263,    0.0,    6.9,   0.00,   0.00, 1007.4,    0.5, -999.0
23-09-2023, 00:15:48,    262,    0.0,    6.8,   0.00,   0.00, 1007.4,    0.5, -999.0
23-09-2023, 00:15:58,    263,    0.0,    6.9,   0.00,   0.00, 1007.4,    0.5, -999.0
23-09-2023, 00:16:08,    263,    0.0,    6.9,   0.00,   0.00, 1007.4,    0.5, -999.0
23-09-2023, 00:16:18,    263,    0.0,    6.9,   0.00,   0.00, 1007.4,    0.5, -999.0
23-09-2023, 00:16:28,    267,    0.0,    6.9,   0.00,   0.00, 1007.4,    0.6, -999.0
23-09-2023, 00:16:38,    268,    0.0,    6.9,   0.00,   0.00, 1007.4,    0.4, -999.0
23-09-2023, 00:16:48,    267,    0.1,    6.9,   0.00,   0.00, 1007.5,    0.4, -999.0
23-09-2023, 00:16:58,    267,    0.0,    6.9,   0.00,   0.00, 1007.4,    0.3, -999.0
23-09-2023, 00:17:07,    267,    0.0,    6.9,   0.00,   0.00, 1007.4,    0.4, -999.0
23-09-2023, 00:17:18,    268,    0.4,    6.9,   0.00,   0.00, 1007.5,    0.1, -999.0
23-09-2023, 00:17:28,    268,    0.0,    6.8,   0.00,   0.00, 1007.5,    0.4, -999.0
23-09-2023, 00:17:37,    268,    0.0,    6.8,   0.00,   0.00, 1007.5,    0.4, -999.0
23-09-2023, 00:17:47,    268,    0.0,    6.9,   0.00,   0.00, 1007.5,    0.6, -999.0
23-09-2023, 00:17:58,    263,    0.0,    6.9,   0.00,   0.00, 1007.5,    0.3, -999.0
23-09-2023, 00:18:07,    263,    0.0,    6.9,   0.00,   0.00, 1007.4,    0.4, -999.0
23-09-2023, 00:18:18,    263,    0.0,    6.9,   0.00,   0.00, 1007.4,    0.3, -999.0
23-09-2023, 00:18:28,    263,    0.0,    6.8,   0.00,   0.00, 1007.4,    0.2, -999.0
23-09-2023, 00:18:38,    263,    0.0,    6.8,   0.00,   0.00, 1007.4,    0.2, -999.0
23-09-2023, 00:18:47,    263,    0.0,    6.8,   0.00,   0.00, 1007.5,    0.3, -999.0
23-09-2023, 00:18:57,    263,    0.0,    6.8,   0.00,   0.00, 1007.4,    0.9, -999.0
23-09-2023, 00:19:08,    263,    0.0,    6.9,   0.00,   0.00, 1007.4,    0.7, -999.0
23-09-2023, 00:19:17,    263,    0.0,    6.9,   0.00,   0.00, 1007.5,    0.1, -999.0
23-09-2023, 00:19:27,    263,    0.0,    6.9,   0.00,   0.00, 1007.4,    0.3, -999.0
23-09-2023, 00:19:37,    252,    0.0,    6.8,   0.00,   0.00, 1007.5,    0.6, -999.0
23-09-2023, 00:19:47,    254,    0.0,    6.8,   0.00,   0.00, 1007.5,    0.3, -999.0
23-09-2023, 00:19:57,    270,    0.0,    6.8,   0.00,   0.00, 1007.5,    0.4, -999.0
23-09-2023, 00:20:07,    281,    0.1,    6.9,   0.00,   0.00, 1007.5,    0.3, -999.0
23-09-2023, 00:20:17,    281,    0.0,    6.8,   0.00,   0.00, 1007.5,    0.7, -999.0
23-09-2023, 00:20:27,    282,    0.0,    6.9,   0.00,   0.00, 1007.4,    0.4, -999.0
23-09-2023, 00:20:37,    281,    0.0,    6.8,   0.00,   0.00, 1007.4,    0.4, -999.0
23-09-2023, 00:20:47,    282,    0.0,    6.8,   0.00,   0.00, 1007.5,    0.5, -999.0
23-09-2023, 00:20:57,    281,    0.0,    6.9,   0.00,   0.00, 1007.5,    0.6, -999.0
23-09-2023, 00:21:07,    281,    0.0,    6.9,   0.00,   0.00, 1007.5,    0.3, -999.0
23-09-2023, 00:21:17,    280,    1.0,    7.0,   0.00,   0.00, 1007.6,    0.4, -999.0
23-09-2023, 00:21:27,    280,    0.0,    6.9,   0.00,   0.00, 1007.5,    0.4, -999.0
23-09-2023, 00:21:37,    279,    0.0,    6.8,   0.00,   0.00, 1007.5,    0.4, -999.0
23-09-2023, 00:21:47,    279,    0.0,    6.8,   0.00,   0.00, 1007.4,    0.3, -999.0
23-09-2023, 00:21:57,    277,    0.0,    6.8,   0.00,   0.00, 1007.5,    0.3, -999.0
23-09-2023, 00:22:07,    277,    0.4,    7.0,   0.00,   0.00, 1007.6,    0.5, -999.0
23-09-2023, 00:22:17,    278,    0.2,    6.9,   0.00,   0.00, 1007.6,    0.5, -999.0
23-09-2023, 00:22:27,    277,    0.1,    6.9,   0.00,   0.00, 1007.5,    0.5, -999.0
23-09-2023, 00:22:38,    276,    0.2,    6.8,   0.00,   0.00, 1007.5,    0.5, -999.0
23-09-2023, 00:22:47,    277,    0.0,    6.8,   0.00,   0.00, 1007.5,    0.5, -999.0
23-09-2023, 00:22:57,    277,    0.0,    6.8,   0.00,   0.00, 1007.5,    0.4, -999.0
23-09-2023, 00:23:07,    277,    0.0,    6.8,   0.00,   0.00, 1007.5,    0.5, -999.0
23-09-2023, 00:23:17,    276,    0.0,    6.8,   0.00,   0.00, 1007.5,    0.5, -999.0
23-09-2023, 00:23:27,    276,    0.5,    7.0,   0.00,   0.00, 1007.6,    0.4, -999.0
23-09-2023, 00:23:36,    275,    0.4,    6.9,   0.00,   0.00, 1007.6,    0.6, -999.0
23-09-2023, 00:23:47,    276,    0.0,    6.8,   0.00,   0.00, 1007.5,    0.5, -999.0
23-09-2023, 00:23:57,    276,    0.7,    6.9,   0.00,   0.00, 1007.6,    0.3, -999.0
23-09-2023, 00:24:07,    275,    0.0,    6.9,   0.00,   0.00, 1007.5,    0.4, -999.0
23-09-2023, 00:24:16,    275,    0.3,    6.9,   0.00,   0.00, 1007.6,    0.4, -999.0
23-09-2023, 00:24:27,    276,    0.1,    6.8,   0.00,   0.00, 1007.5,    0.4, -999.0
23-09-2023, 00:24:37,    275,    0.0,    6.8,   0.00,   0.00, 1007.5,    0.4, -999.0
23-09-2023, 00:24:46,    275,    0.0,    6.8,   0.00,   0.00, 1007.5,    0.6, -999.0
23-09-2023, 00:24:56,    242,    0.2,    6.8,   0.00,   0.00, 1007.5,    0.7, -999.0
23-09-2023, 00:25:07,    243,    0.0,    6.8,   0.00,   0.00, 1007.5,    0.4, -999.0
23-09-2023, 00:25:16,    245,    0.7,    6.8,   0.00,   0.00, 1007.6,    0.4, -999.0
23-09-2023, 00:25:26,    246,    0.0,    6.7,   0.00,   0.00, 1007.5,    0.5, -999.0
23-09-2023, 00:25:36,    245,    0.0,    6.7,   0.00,   0.00, 1007.5,    0.5, -999.0
23-09-2023, 00:25:47,    245,    0.0,    6.8,   0.00,   0.00, 1007.5,    0.5, -999.0
23-09-2023, 00:25:56,    245,    0.0,    6.8,   0.00,   0.00, 1007.5,    0.5, -999.0
23-09-2023, 00:26:06,    245,    0.0,    6.8,   0.00,   0.00, 1007.5,    0.5, -999.0
23-09-2023, 00:26:17,    272,    0.2,    6.8,   0.00,   0.00, 1007.5,    0.5, -999.0
23-09-2023, 00:26:26,    272,    0.0,    6.9,   0.00,   0.00, 1007.5,    0.6, -999.0
23-09-2023, 00:26:36,    272,    0.3,    6.9,   0.00,   0.00, 1007.6,    0.5, -999.0
23-09-2023, 00:26:46,    273,    0.3,    6.9,   0.00,   0.00, 1007.6,    0.5, -999.0
23-09-2023, 00:26:56,    272,    0.0,    6.8,   0.00,   0.00, 1007.5,    0.3, -999.0
23-09-2023, 00:27:06,    273,    0.0,    6.8,   0.00,   0.00, 1007.5,    0.4, -999.0
23-09-2023, 00:27:16,    272,    0.2,    6.8,   0.00,   0.00, 1007.5,    0.3, -999.0
23-09-2023, 00:27:26,    288,    1.4,    6.9,   0.00,   0.00, 1007.6,    0.4, -999.0
23-09-2023, 00:27:36,    264,    0.4,    6.8,   0.00,   0.00, 1007.6,    0.5, -999.0
23-09-2023, 00:27:46,    265,    0.2,    6.8,   0.00,   0.00, 1007.6,    0.5, -999.0
23-09-2023, 00:27:56,    265,    0.9,    6.9,   0.00,   0.00, 1007.6,    0.4, -999.0
23-09-2023, 00:28:06,    265,    0.4,    6.9,   0.00,   0.00, 1007.6,    0.5, -999.0
23-09-2023, 00:28:16,    265,    0.0,    6.8,   0.00,   0.00, 1007.5,    0.6, -999.0
23-09-2023, 00:28:26,    265,    0.0,    6.7,   0.00,   0.00, 1007.5,    0.5, -999.0
23-09-2023, 00:28:36,    265,    0.3,    6.8,   0.00,   0.00, 1007.5,    0.3, -999.0
23-09-2023, 00:28:46,    266,    0.4,    6.9,   0.00,   0.00, 1007.6,    0.3, -999.0
23-09-2023, 00:28:56,    266,    0.0,    6.8,   0.00,   0.00, 1007.5,    0.3, -999.0
23-09-2023, 00:29:06,    266,    0.0,    6.7,   0.00,   0.00, 1007.5,    0.4, -999.0
23-09-2023, 00:29:16,    269,    0.1,    6.8,   0.00,   0.00, 1007.6,    0.6, -999.0
23-09-2023, 00:29:26,    269,    0.3,    6.8,   0.00,   0.00, 1007.5,    0.4, -999.0
23-09-2023, 00:29:36,    270,    0.3,    6.8,   0.00,   0.00, 1007.6,    0.3, -999.0
23-09-2023, 00:29:46,    258,    0.9,    6.9,   0.00,   0.00, 1007.6,    0.5, -999.0
23-09-2023, 00:29:56,    258,    1.8,    6.8,   0.00,   0.00, 1007.6,    0.5, -999.0
23-09-2023, 00:30:06,    273,    2.5,    6.9,   0.00,   0.00, 1007.6,    0.7, -999.0
23-09-2023, 00:30:16,    264,    1.4,    6.8,   0.00,   0.00, 1007.6,    0.4, -999.0
23-09-2023, 00:30:26,    256,    2.2,    6.8,   0.00,   0.00, 1007.6,    0.6, -999.0
23-09-2023, 00:30:36,    268,    2.1,    6.9,   0.00,   0.00, 1007.6,    0.5, -999.0
23-09-2023, 00:30:46,    269,    0.9,    6.8,   0.00,   0.00, 1007.6,    0.4, -999.0
23-09-2023, 00:30:56,    269,    0.2,    6.8,   0.00,   0.00, 1007.6,    0.4, -999.0
23-09-2023, 00:31:06,    270,    0.1,    6.8,   0.00,   0.00, 1007.5,    0.7, -999.0
23-09-2023, 00:31:15,    269,    0.0,    6.8,   0.00,   0.00, 1007.5,    0.5, -999.0
23-09-2023, 00:31:26,    270,    0.0,    6.7,   0.00,   0.00, 1007.5,    0.5, -999.0
23-09-2023, 00:31:36,    256,    0.1,    6.8,   0.00,   0.00, 1007.5,    0.5, -999.0
23-09-2023, 00:31:45,    256,    0.4,    6.8,   0.00,   0.00, 1007.6,    0.6, -999.0
23-09-2023, 00:31:55,    256,    0.0,    6.8,   0.00,   0.00, 1007.5,    0.4, -999.0
23-09-2023, 00:32:06,    255,    0.0,    6.8,   0.00,   0.00, 1007.5,    0.5, -999.0
23-09-2023, 00:32:16,    256,    0.0,    6.8,   0.00,   0.00, 1007.5,    0.3, -999.0
23-09-2023, 00:32:25,    256,    0.0,    6.8,   0.00,   0.00, 1007.5,    0.5, -999.0
23-09-2023, 00:32:35,    257,    0.2,    6.8,   0.00,   0.00, 1007.6,    0.3, -999.0
23-09-2023, 00:32:46,    258,    1.4,    6.9,   0.00,   0.00, 1007.6,    0.4, -999.0
23-09-2023, 00:32:55,    258,    0.2,    6.8,   0.00,   0.00, 1007.6,    0.4, -999.0
23-09-2023, 00:33:05,    257,    0.7,    6.9,   0.00,   0.00, 1007.6,    0.4, -999.0
23-09-2023, 00:33:16,    258,    0.1,    6.8,   0.00,   0.00, 1007.6,    0.4, -999.0
23-09-2023, 00:33:25,    257,    0.2,    6.8,   0.00,   0.00, 1007.6,    0.6, -999.0
23-09-2023, 00:33:35,    258,    0.0,    6.8,   0.00,   0.00, 1007.5,    0.4, -999.0
23-09-2023, 00:33:45,    264,    1.2,    6.8,   0.00,   0.00, 1007.6,    0.5, -999.0
23-09-2023, 00:33:56,    256,    1.8,    6.8,   0.00,   0.00, 1007.6,    0.7, -999.0
23-09-2023, 00:34:05,    278,    1.9,    6.8,   0.00,   0.00, 1007.6,    0.5, -999.0
23-09-2023, 00:34:15,    256,    1.7,    6.8,   0.00,   0.00, 1007.6,    0.6, -999.0
23-09-2023, 00:34:25,    272,    1.5,    6.8,   0.00,   0.00, 1007.6,    0.6, -999.0
23-09-2023, 00:34:35,    273,    0.5,    6.8,   0.00,   0.00, 1007.6,    0.4, -999.0
23-09-2023, 00:34:45,    271,    0.1,    6.8,   0.00,   0.00, 1007.5,    0.4, -999.0
23-09-2023, 00:34:55,    256,    1.1,    6.7,   0.00,   0.00, 1007.6,    0.7, -999.0
23-09-2023, 00:35:05,    256,    1.1,    6.8,   0.00,   0.00, 1007.6,    0.7, -999.0
23-09-2023, 00:35:15,    257,    0.8,    6.8,   0.00,   0.00, 1007.6,    0.5, -999.0
23-09-2023, 00:35:25,    259,    0.4,    6.7,   0.00,   0.00, 1007.7,    0.3, -999.0
23-09-2023, 00:35:35,    259,    0.5,    6.8,   0.00,   0.00, 1007.6,    0.5, -999.0
23-09-2023, 00:35:45,    256,    1.3,    6.8,   0.00,   0.00, 1007.7,    0.4, -999.0
23-09-2023, 00:35:55,    257,    1.0,    6.8,   0.00,   0.00, 1007.6,    0.6, -999.0
23-09-2023, 00:36:05,    258,    0.0,    6.8,   0.00,   0.00, 1007.5,    0.4, -999.0
23-09-2023, 00:36:15,    258,    0.0,    6.8,   0.00,   0.00, 1007.5,    0.5, -999.0
23-09-2023, 00:36:25,    258,    0.0,    6.7,   0.00,   0.00, 1007.5,    0.5, -999.0
23-09-2023, 00:36:35,    258,    0.0,    6.7,   0.00,   0.00, 1007.5,    0.5, -999.0
23-09-2023, 00:36:45,    262,    0.7,    6.8,   0.00,   0.00, 1007.6,    0.5, -999.0
23-09-2023, 00:36:55,    261,    0.1,    6.8,   0.00,   0.00, 1007.6,    0.6, -999.0
23-09-2023, 00:37:05,    260,    0.0,    6.8,   0.00,   0.00, 1007.6,    0.5, -999.0
23-09-2023, 00:37:15,    261,    0.0,    6.8,   0.00,   0.00, 1007.6,    0.4, -999.0
23-09-2023, 00:37:25,    261,    0.0,    6.7,   0.00,   0.00, 1007.5,    0.4, -999.0
23-09-2023, 00:37:35,    263,    0.1,    6.7,   0.00,   0.00, 1007.5,    0.4, -999.0
23-09-2023, 00:37:45,    262,    0.3,    6.8,   0.00,   0.00, 1007.6,    0.3, -999.0
23-09-2023, 00:37:55,    262,    0.1,    6.8,   0.00,   0.00, 1007.5,    0.8, -999.0
23-09-2023, 00:38:05,    262,    0.1,    6.8,   0.00,   0.00, 1007.6,    0.6, -999.0
23-09-2023, 00:38:15,    263,    0.0,    6.8,   0.00,   0.00, 1007.5,    0.7, -999.0
23-09-2023, 00:38:25,    263,    0.0,    6.7,   0.00,   0.00, 1007.5,    0.7, -999.0
23-09-2023, 00:38:35,    263,    0.0,    6.7,   0.00,   0.00, 1007.5,    0.4, -999.0
23-09-2023, 00:38:45,    263,    0.0,    6.7,   0.00,   0.00, 1007.5,    0.2, -999.0
23-09-2023, 00:38:54,    263,    0.0,    6.7,   0.00,   0.00, 1007.5,    0.4, -999.0
23-09-2023, 00:39:05,    263,    0.0,    6.7,   0.00,   0.00, 1007.5,    0.2, -999.0
23-09-2023, 00:39:15,    263,    0.0,    6.7,   0.00,   0.00, 1007.5,    0.1, -999.0
23-09-2023, 00:39:24,    264,    0.0,    6.7,   0.00,   0.00, 1007.5,    0.3, -999.0
23-09-2023, 00:39:34,    263,    0.0,    6.7,   0.00,   0.00, 1007.4,    0.3, -999.0
23-09-2023, 00:39:45,    263,    0.0,    6.7,   0.00,   0.00, 1007.5,    0.5, -999.0
23-09-2023, 00:39:55,    264,    0.0,    6.7,   0.00,   0.00, 1007.5,    0.6, -999.0
23-09-2023, 00:40:04,    263,    0.0,    6.7,   0.00,   0.00, 1007.5,    0.4, -999.0
23-09-2023, 00:40:14,    264,    1.1,    6.8,   0.00,   0.00, 1007.6,    0.4, -999.0
23-09-2023, 00:40:25,    261,    1.2,    6.8,   0.00,   0.00, 1007.6,    0.4, -999.0
23-09-2023, 00:40:34,    262,    0.3,    6.8,   0.00,   0.00, 1007.6,    0.5, -999.0
23-09-2023, 00:40:44,    261,    0.0,    6.7,   0.00,   0.00, 1007.5,    0.3, -999.0
23-09-2023, 00:40:54,    261,    0.2,    6.7,   0.00,   0.00, 1007.5,    0.8, -999.0
23-09-2023, 00:41:04,    262,    0.3,    6.7,   0.00,   0.00, 1007.6,    0.4, -999.0
23-09-2023, 00:41:14,    262,    0.2,    6.7,   0.00,   0.00, 1007.6,    0.4, -999.0
23-09-2023, 00:41:24,    261,    0.0,    6.6,   0.00,   0.00, 1007.5,    0.6, -999.0
23-09-2023, 00:41:34,    261,    0.0,    6.6,   0.00,   0.00, 1007.5,    0.5, -999.0
23-09-2023, 00:41:44,    261,    0.0,    6.6,   0.00,   0.00, 1007.5,    0.9, -999.0
23-09-2023, 00:41:54,    262,    0.1,    6.6,   0.00,   0.00, 1007.5,    0.7, -999.0
23-09-2023, 00:42:04,    262,    0.7,    6.8,   0.00,   0.00, 1007.6,    0.6, -999.0
23-09-2023, 00:42:14,    262,    0.0,    6.7,   0.00,   0.00, 1007.5,    0.5, -999.0
23-09-2023, 00:42:24,    262,    0.0,    6.7,   0.00,   0.00, 1007.5,    0.8, -999.0
23-09-2023, 00:42:34,    260,    0.9,    6.7,   0.00,   0.00, 1007.6,    0.5, -999.0
23-09-2023, 00:42:44,    260,    0.2,    6.8,   0.00,   0.00, 1007.6,    0.5, -999.0
23-09-2023, 00:42:54,    260,    0.0,    6.7,   0.00,   0.00, 1007.5,    0.4, -999.0
23-09-2023, 00:43:04,    260,    0.0,    6.6,   0.00,   0.00, 1007.5,    0.2, -999.0
23-09-2023, 00:43:14,    260,    0.0,    6.6,   0.00,   0.00, 1007.5,    0.1, -999.0
23-09-2023, 00:43:24,    260,    0.0,    6.6,   0.00,   0.00, 1007.5,    0.3, -999.0
23-09-2023, 00:43:34,    260,    0.0,    6.6,   0.00,   0.00, 1007.5,    0.8, -999.0
23-09-2023, 00:43:44,    260,    0.0,    6.6,   0.00,   0.00, 1007.5,    0.3, -999.0
23-09-2023, 00:43:54,    260,    0.0,    6.7,   0.00,   0.00, 1007.5,    0.4, -999.0
23-09-2023, 00:44:04,    260,    0.0,    6.6,   0.00,   0.00, 1007.5,    0.6, -999.0
23-09-2023, 00:44:14,    260,    0.0,    6.6,   0.00,   0.00, 1007.5,    0.5, -999.0
23-09-2023, 00:44:24,    261,    0.0,    6.7,   0.00,   0.00, 1007.5,    0.1, -999.0
23-09-2023, 00:44:34,    261,    0.0,    6.7,   0.00,   0.00, 1007.5,    0.6, -999.0
23-09-2023, 00:44:44,    260,    0.0,    6.6,   0.00,   0.00, 1007.5,    0.4, -999.0
23-09-2023, 00:44:54,    260,    0.0,    6.7,   0.00,   0.00, 1007.5,    0.1, -999.0
23-09-2023, 00:45:04,    262,    0.0,    6.6,   0.00,   0.00, 1007.5,    0.0, -999.0
23-09-2023, 00:45:14,    267,    0.7,    6.7,   0.00,   0.00, 1007.6,    0.6, -999.0
23-09-2023, 00:45:23,    267,    0.3,    6.7,   0.00,   0.00, 1007.6,    0.5, -999.0
23-09-2023, 00:45:34,    268,    0.2,    6.7,   0.00,   0.00, 1007.6,    0.7, -999.0
23-09-2023, 00:45:44,    268,    0.0,    6.6,   0.00,   0.00, 1007.5,    0.6, -999.0
23-09-2023, 00:45:54,    269,    0.0,    6.6,   0.00,   0.00, 1007.5,    0.5, -999.0
23-09-2023, 00:46:04,    267,    0.1,    6.6,   0.00,   0.00, 1007.5,    0.4, -999.0
23-09-2023, 00:46:14,    267,    0.0,    6.6,   0.00,   0.00, 1007.5,    0.4, -999.0
23-09-2023, 00:46:24,    267,    0.0,    6.6,   0.00,   0.00, 1007.5,    0.6, -999.0
23-09-2023, 00:46:33,    267,    0.1,    6.6,   0.00,   0.00, 1007.5,    0.2, -999.0
23-09-2023, 00:46:44,    266,    0.2,    6.7,   0.00,   0.00, 1007.5,    0.6, -999.0